Overview Statistics Trail Chart Weather Telemetry Raw packets
 

This is the latest recevied weather packets stored in our database for station/object ENMS. If no packets are shown the sender has not sent any weather packets the latest 10 day(s).

<< 15 16 17 18 19 >>
Time Temp. Humidity Pressure Rain* Wind** Luminosity Snow
1787853788 16.67° C 77% 1021 hPa - - - -
1787851987 18.89° C 59% 1021 hPa - - - -
1787850187 20° C 52% 1021 hPa - - - -
1787848387 20° C 56% 1021 hPa - - - -
1787846587 21.67° C 49% 1022 hPa - - - -
1787844787 21.67° C 53% 1022 hPa - - - -
1787842988 21.67° C 46% 1022 hPa - - - -
1787841188 21.67° C 46% 1022 hPa - - - -
1787839387 21.67° C 43% 1023 hPa - - - -
1787837588 21.67° C 46% 1023 hPa - - - -
1787835786 21.67° C 46% 1023 hPa - - - -
1787833987 21.67° C 43% 1023 hPa - - - -
1787832187 21.67° C 46% 1024 hPa - - - -
1787830387 20° C 52% 1024 hPa - - - -
1787828587 18.89° C 52% 1024 hPa - - - -
1787826788 17.78° C 59% 1024 hPa - - - -
1787824988 16.67° C 59% 1025 hPa - - - -
1787823186 15° C 67% 1025 hPa - - - -
1787821387 12.78° C 76% 1025 hPa - - - -
1787819587 12.78° C 76% 1026 hPa - - - -
1787817787 11.67° C 76% 1026 hPa - - - -
1787815988 10.56° C 81% 1026 hPa - - - -
1787814188 8.89° C 87% 1026 hPa - - - -
1787812387 7.78° C 93% 1026 hPa - - - -
1787810586 6.67° C 10% - - - - -

* Rain since midnight (hover to see other rain measurements)
** Current wind speed in m/s (hover to see current wind gust speed)